Allentown, PA

7:14 PM EDT on June 20, 2018 (GMT -0400)
Lehigh Valley International

Weather History for KABE - August, 2017

Change the Weather History Date:

Sunday, August 13, 2017

  Actual Average Record
Temperature  
Mean Temperature 73 °F 72 °F  
Max Temperature 82 °F 83 °F 98 °F (2002)
Min Temperature 63 °F 62 °F 45 °F (1930)
Degree Days  
Heating Degree Days 0 0  
Month to date heating degree days 0 0  
Since 1 June heating degree days 27 36  
Since 1 July heating degree days 0 3  
Cooling Degree Days 8 7  
Month to date cooling degree days 100 103  
Year to date cooling degree days 704 568  
Since 1 June cooling degree days 644 523  
Growing Degree Days 22 (Base 50)    
Moisture  
Dew Point 62 °F    
Average Humidity 71    
Maximum Humidity 93    
Minimum Humidity 49    
Precipitation  
Precipitation 0.00 in 0.12 in 3.63 in (1955)
Month to date precipitation 4.86 1.71  
Year to date precipitation 35.55 27.79  
Snow  
Snow 0.00 in 0.00 in 0.00 in (2002)
Month to date snowfall 0.0 0.0  
Since 1 June snowfall 0.0 0.0  
Since 1 July snowfall 0.0 0.0  
Snow Depth 0.00 in    
Sea Level Pressure  
Sea Level Pressure 29.94 in    
Wind  
Wind Speed 5 mph (West)    
Max Wind Speed 14 mph    
Max Gust Speed 17 mph    
Visibility 6 miles    
Events Fog    
T = Trace of Precipitation, MM = Missing Value Source: NWS Daily Summary

Daily Weather History Graph

Daily Weather History Graph

Search for Another Location

Airport or City:

Astronomy

Aug. 13, 2017 Rise Set
Actual Time 6:10 AM EDT 8:01 PM EDT
Civil Twilight 5:40 AM EDT 8:31 PM EDT
Nautical Twilight 5:05 AM EDT 9:07 PM EDT
Astronomical Twilight 4:26 AM EDT 9:45 PM EDT
Moon 11:32 PM EDT (8/13) 12:09 PM EDT (8/13)
Length of Visible Light 14h 50m
Length of Day
13h 51m
Waning Gibbous, 65% of the Moon is Illuminated
Aug 13
Waning Gibbous
Aug 14
Last Quarter
Aug 21
New
Aug 29
First Quarter
Sep 6
Full

Hourly Weather History & Observations

Time (EDT) Temp. Heat Index Dew Point Humidity Pressure Visibility Wind Dir Wind Speed Gust Speed Precip Events Conditions
12:51 AM 69.1 °F - 66.0 °F 90% 29.88 in 3.0 mi WSW 5.8 mph - N/A   Clear
1:51 AM 66.9 °F - 64.0 °F 90% 29.88 in 4.0 mi WSW 5.8 mph - N/A   Clear
2:04 AM 64.9 °F - 63.0 °F 93% 29.88 in 1.8 mi SW 4.6 mph - N/A   Clear
2:09 AM 66.0 °F - 63.0 °F 90% 29.89 in 3.0 mi WSW 4.6 mph - N/A   Partly Cloudy
2:16 AM 66.0 °F - 64.0 °F 93% 29.88 in 2.0 mi WSW 3.5 mph - N/A   Scattered Clouds
2:23 AM 66.9 °F - 64.9 °F 93% 29.89 in 2.0 mi SW 3.5 mph - N/A   Mostly Cloudy
2:51 AM 66.9 °F - 64.0 °F 90% 29.88 in 2.0 mi WNW 3.5 mph - N/A   Scattered Clouds
2:58 AM 66.0 °F - 64.0 °F 93% 29.88 in 1.0 mi Calm Calm - N/A   Mist
3:04 AM 64.9 °F - 63.0 °F 93% 29.89 in 0.2 mi NNW 3.5 mph - N/A Fog Fog
3:13 AM 64.9 °F - 63.0 °F 93% 29.88 in 0.2 mi NW 3.5 mph - N/A Fog Fog
3:51 AM 64.9 °F - 63.0 °F 93% 29.88 in 0.2 mi West 3.5 mph - N/A Fog Fog
4:17 AM 64.0 °F - 62.1 °F 93% 29.89 in 0.2 mi West 4.6 mph - N/A Fog Fog
4:30 AM 64.9 °F - 62.1 °F 90% 29.89 in 0.2 mi SSW 5.8 mph - N/A Fog Fog
4:51 AM 66.0 °F - 64.0 °F 93% 29.89 in 0.2 mi WSW 5.8 mph - N/A Fog Fog
5:26 AM 66.0 °F - 64.0 °F 93% 29.90 in 0.2 mi SW 4.6 mph - N/A Fog Fog
5:51 AM 64.9 °F - 63.0 °F 93% 29.91 in 0.2 mi WSW 5.8 mph - N/A Fog Fog
6:34 AM 64.0 °F - 62.1 °F 93% 29.93 in 0.5 mi West 4.6 mph - N/A Fog Fog
6:38 AM 64.0 °F - 62.1 °F 93% 29.93 in 2.5 mi West 3.5 mph - N/A   Scattered Clouds
6:51 AM 64.0 °F - 62.1 °F 93% 29.93 in 6.0 mi West 4.6 mph - N/A   Partly Cloudy
7:51 AM 66.9 °F - 64.0 °F 90% 29.95 in 10.0 mi Calm Calm - N/A   Clear
8:51 AM 72.0 °F - 62.1 °F 71% 29.96 in 10.0 mi NNW 9.2 mph - N/A   Clear
9:51 AM 73.9 °F - 61.0 °F 64% 29.97 in 10.0 mi NW 8.1 mph - N/A   Partly Cloudy
10:51 AM 75.9 °F - 62.1 °F 62% 29.99 in 10.0 mi North 10.4 mph - N/A   Partly Cloudy
11:51 AM 75.9 °F - 61.0 °F 60% 29.99 in 10.0 mi NNW 5.8 mph - N/A   Mostly Cloudy
12:51 PM 78.1 °F - 60.1 °F 54% 29.99 in 10.0 mi NNW 6.9 mph - N/A   Mostly Cloudy
1:51 PM 80.1 °F 80.9 °F 60.1 °F 50% 29.99 in 10.0 mi North 10.4 mph - N/A   Partly Cloudy
2:51 PM 80.1 °F 80.9 °F 60.1 °F 50% 29.99 in 10.0 mi North 8.1 mph - N/A   Mostly Cloudy
3:51 PM 81.0 °F 81.6 °F 60.1 °F 49% 29.98 in 10.0 mi NNW 6.9 mph - N/A   Scattered Clouds
4:51 PM 81.0 °F 81.3 °F 59.0 °F 47% 29.99 in 10.0 mi NNW 6.9 mph - N/A   Clear
5:51 PM 80.1 °F 80.7 °F 59.0 °F 48% 29.99 in 10.0 mi WNW 5.8 mph - N/A   Clear
6:51 PM 78.1 °F - 60.1 °F 54% 29.99 in 10.0 mi West 4.6 mph - N/A   Clear
7:51 PM 73.9 °F - 61.0 °F 64% 30.00 in 10.0 mi WSW 5.8 mph - N/A   Clear
8:51 PM 71.1 °F - 61.0 °F 70% 30.01 in 10.0 mi West 3.5 mph - N/A   Clear
9:51 PM 71.1 °F - 61.0 °F 70% 30.03 in 10.0 mi WSW 3.5 mph - N/A   Clear
10:51 PM 66.9 °F - 61.0 °F 81% 30.03 in 10.0 mi West 3.5 mph - N/A   Clear
11:51 PM 66.0 °F - 61.0 °F 84% 30.04 in 10.0 mi Calm Calm - N/A   Clear